Miscellaneous Local Product
Issued by NWS Hastings, NE

Home | Current Version | Previous Version | Text Only | Print | Product List | Glossary On
Versions: 1 2 3 4 5 6 7 8 9 10 11 12 13 14 15 16 17 18 19 20 21 22 23 24 25 26 27 28 29 30 31 32 33 34 35 36 37 38 39 40 41 42 43 44 45 46 47 48 49 50
000
AXUS43 KGID 281202
MISGRI

GID CWA HOURLY WEATHER ROUNDUP
NATIONAL WEATHER SERVICE HASTINGS NE
700 AM CDT SAT MAY 28 2016

NOTE: "FAIR" INDICATES FEW OR NO CLOUDS BELOW 12,000 FEET WITH NO
SIGNIFICANT WEATHER AND/OR OBSTRUCTIONS TO VISIBILITY.

...SOUTH CENTRAL NEBRASKA...

CITY           SKY/WX    TMP DP  RH WIND       PRES   REMARKS
GRAND ISLAND   LGT RAIN  56  54  93 NW10      29.80R
HASTINGS       CLOUDY    57  54  89 NW8       29.80R
KEARNEY        CLOUDY    55  52  88 NW8       29.82R
ORD            LGT RAIN  56  54  93 W9        29.78R
YORK           CLOUDY    57  55  94 NW3       29.77R
AURORA         MOCLDY    56  56  98 NW8       29.77R
LEXINGTON      CLOUDY    56  53  92 NW8       29.83S
HOLDREGE       CLOUDY    55  54  94 NW3       29.81R
HEBRON         MOCLDY    56  56  97 CALM      29.77R

...NEBRASKA PANHANDLE...

CITY           SKY/WX    TMP DP  RH WIND       PRES   REMARKS
CHADRON        CLEAR     38  37  97 CALM      29.90R
ALLIANCE       MOCLDY    36  36 100 SW3       29.91S
SCOTTSBLUFF    CLEAR     41  39  93 NW8       29.93R
SIDNEY         CLEAR     41  39  93 NW10      29.94R

...WESTERN AND NORTH CENTRAL NEBRASKA...

CITY           SKY/WX    TMP DP  RH WIND       PRES   REMARKS
VALENTINE      CLOUDY    53  49  86 NW10      29.84R
AINSWORTH      CLOUDY    56  53  89 NW7       29.83R
ONEILL         RAIN      57  56  96 W12       29.78R
BROKEN BOW     CLOUDY    56  53  90 CALM      29.82R
IMPERIAL       CLEAR     50  45  83 NW9       29.90R
NORTH PLATTE   MOCLDY    50  48  93 NW5       29.87R
MCCOOK         CLEAR     51  50  96 W7        29.86R

...EASTERN NEBRASKA...

CITY           SKY/WX    TMP DP  RH WIND       PRES   REMARKS
NORFOLK        CLOUDY    58  56  93 W13       29.69S
SO SIOUX CITY  CLOUDY    63  59  87 S10       29.72S
TEKAMAH        CLOUDY    61  58  90 SW8       29.73S
COLUMBUS       CLOUDY    57  50  77 W6        29.76R
ALBION         DRIZZLE   56  55  93 W9        29.75R
OMAHA EPPLEY   PTSUNNY   62  58  86 S10       29.74S
MILLARD        CLOUDY    62  59  89 CALM      29.74S
LINCOLN        CLOUDY    57  55  93 S5        29.76R
NEBRASKA CITY  DRIZZLE   60  60 100 W3        29.76R
BEATRICE       CLOUDY    59  57  94 CALM      29.76R
FALLS CITY     CLOUDY    60  59  96 SE3       29.74F

...NORTHERN KANSAS...

CITY           SKY/WX    TMP DP  RH WIND       PRES   REMARKS
GOODLAND       CLEAR     46  44  93 W9        29.92R
HILL CITY      CLEAR     51  49  92 W7        29.85R
NORTON         MOSUNNY   54  50  87 NW8       29.84R
PHILLIPSBURG   PTCLDY    57  57 100 W7        29.82R
SMITH CENTER   MOCLDY    54  54 100 N3        29.82R
BELOIT         CLOUDY    55  55 100 CALM      29.79R
HAYS           CLEAR     50  43  76 NW7       29.83R
RUSSELL        CLEAR     53  52  96 W8        29.81R
CONCORDIA      CLOUDY    57  56  96 W3        29.79R
SALINA         CLOUDY    59  57  93 SW6       29.79R
TOPEKA         MOCLDY    61  58  90 SE3       29.76R



USA.gov is the U.S. government's official web portal to all federal, state and local government web resources and services.